Weather Roundup
Issued by NWS Corpus Christi, TX

Home | Current Version | Previous Version | Text Only | Print | Product List | Glossary On
Versions: 1 2 3 4 5 6 7 8 9 10 11 12 13 14 15 16 17 18 19 20 21 22 23 24 25 26 27 28 29 30 31 32 33 34 35 36 37 38 39 40 41 42 43 44 45 46 47 48 49 50
546
ASUS44 KCRP 051210
HRRCRP

SOUTH TEXAS REGIONAL WEATHER ROUNDUP
NATIONAL WEATHER SERVICE CORPUS CHRISTI TX
700 AM CDT THU MAY 05 2016


TXZ229>244-051300-
...CORPUS CHRISTI AREA OBSERVATIONS...

CITY           SKY/WX    TMP DP  RH WIND       PRES   REMARKS
CORPUS CHRISTI PTCLDY    59  55  87 SW5       30.03R
NAS CORPUS CHR PTCLDY    64  62  93 W7        30.02S
ROCKPORT       CLEAR     65  59  81 W3        30.03R
KINGSVILLE NAS PTCLDY    54  54 100 CALM      30.03R
ALICE          CLEAR     52  50  93 NE7       30.03R
FALFURRIAS     CLEAR     57  52  83 CALM      30.03R
$$

...VICTORIA AREA OBSERVATIONS...

CITY           SKY/WX    TMP DP  RH WIND       PRES   REMARKS
VICTORIA       CLEAR     59  56  89 W5        30.04R
BEEVILLE       FAIR      56  54  94 NW3       30.04R
PLEASANTON     CLEAR     53  51  93 NW3       30.05R
SAN ANTONIO    PTCLDY    56  46  69 NW6       30.06R
$$

...LAREDO AREA OBSERVATIONS...

CITY           SKY/WX    TMP DP  RH WIND       PRES   REMARKS
LAREDO         CLEAR     63  51  65 S7        30.04R
COTULLA        CLEAR     60  48  64 NE3       30.05R
DEL RIO        CLEAR     53  49  86 SW3       30.06R
MCALLEN        CLEAR     65  56  72 S3        30.03R
HEBBRONVILLE   CLEAR     61  49  65 SW6       30.05R
$$

...OTHER TEXAS OBSERVATIONS...

CITY           SKY/WX    TMP DP  RH WIND       PRES   REMARKS
BROWNSVILLE    CLEAR     60  59  96 S6        30.03S
HOUSTON        CLEAR     61  55  81 N3        30.01R
COL. STATION   CLEAR     58  53  84 N8        30.02S
AUSTIN         PTCLDY    53  50  89 CALM      30.03R
WACO           CLEAR     53  50  89 N5        30.06R
FORT WORTH     CLEAR     58  50  75 NW3       30.06R
WICHITA FALLS  CLEAR     56  49  77 NW5       30.09R
LUBBOCK        CLEAR     54  35  48 SW6       30.12S
EL PASO        MOCLDY    65  22  19 NE7       30.10S
$$

...MARINE OBSERVATIONS...

STATION/POSITION TIME  SKY/WX   TEMP    WIND        PRES    VSBY  WAVE   SWELL
                                AIR SEA DIR/SP/G                  HT/PER HT/PER
                 (UTC)          (F)     (DEG/KT/KT) (MB)    (MI)  (FT/S) (FT/S)
PORT ARANSAS     1200            70 76  240/ 12/ 14 1017.4R
BUOY 90 E PORT A 1150            74 76  300/ 14/ 16 1016.1R         2/ 3
BUOY 45 SE BAFFI 1150            73 74  240/ 14/ 16 1016.0R         2/ 4
BUOY 200 E PT IS 1150                                 N/A           3/ 6   3/ 6
BUOY 15 E GALVES 1150            74 75  300/ 10/ 12 1014.6R         1/ 4
$$




USA.gov is the U.S. government's official web portal to all federal, state and local government web resources and services.